Time,TemperatureF,DewpointF,PressureIn,WindDirection,WindDirectionDegrees,WindSpeedMPH,WindSpeedGustMPH,Humidity,HourlyPrecipIn,Conditions,Clouds,dailyrainin,SoftwareType,DateUTC
2013-07-05 00:01:00,68.9,61.4,29.92,North,360,0.0,3.0,77,0.00,,---,0.00,VWS V14.01,2013-07-05 04:01:00,
2013-07-05 00:06:00,69.0,61.5,29.92,North,360,0.0,7.0,77,0.00,,---,0.00,VWS V14.01,2013-07-05 04:06:00,
2013-07-05 00:11:00,68.9,61.4,29.92,North,360,0.0,7.0,77,0.00,,---,0.00,VWS V14.01,2013-07-05 04:11:00,
2013-07-05 00:16:00,68.8,61.3,29.92,North,360,0.0,7.0,77,0.00,,---,0.00,VWS V14.01,2013-07-05 04:16:00,
2013-07-05 00:21:00,68.8,61.7,29.92,North,360,1.0,7.0,78,0.00,,---,0.00,VWS V14.01,2013-07-05 04:21:00,
2013-07-05 00:26:00,68.8,61.7,29.92,North,360,3.0,7.0,78,0.00,,---,0.00,VWS V14.01,2013-07-05 04:26:00,
2013-07-05 00:31:00,68.8,61.3,29.92,North,360,0.0,7.0,77,0.00,,---,0.00,VWS V14.01,2013-07-05 04:31:00,
2013-07-05 00:36:00,68.7,61.2,29.91,North,360,0.0,7.0,77,0.00,,---,0.00,VWS V14.01,2013-07-05 04:36:00,
2013-07-05 00:41:00,68.7,61.6,29.92,North,360,0.0,7.0,78,0.00,,---,0.00,VWS V14.01,2013-07-05 04:41:00,
2013-07-05 00:46:00,68.6,61.5,29.92,North,360,0.0,7.0,78,0.00,,---,0.00,VWS V14.01,2013-07-05 04:46:00,
2013-07-05 00:51:00,68.5,61.4,29.91,North,360,0.0,7.0,78,0.00,,---,0.00,VWS V14.01,2013-07-05 04:51:00,
2013-07-05 00:56:00,68.4,61.3,29.91,North,360,0.0,7.0,78,0.00,,---,0.00,VWS V14.01,2013-07-05 04:56:00,
2013-07-05 01:01:00,68.3,61.2,29.91,North,360,2.0,7.0,78,0.00,,---,0.00,VWS V14.01,2013-07-05 05:01:00,
2013-07-05 01:06:00,68.2,61.1,29.91,North,360,0.0,7.0,78,0.00,,---,0.00,VWS V14.01,2013-07-05 05:06:00,
2013-07-05 01:11:00,68.1,61.0,29.91,North,360,0.0,7.0,78,0.00,,---,0.00,VWS V14.01,2013-07-05 05:11:00,
2013-07-05 01:16:00,68.0,60.9,29.91,North,360,0.0,7.0,78,0.00,,---,0.00,VWS V14.01,2013-07-05 05:16:00,
2013-07-05 01:21:00,68.0,60.9,29.92,North,360,0.0,7.0,78,0.00,,---,0.00,VWS V14.01,2013-07-05 05:21:00,
2013-07-05 01:26:00,68.0,60.9,29.91,North,360,0.0,7.0,78,0.00,,---,0.00,VWS V14.01,2013-07-05 05:26:00,
2013-07-05 01:31:00,68.1,61.0,29.91,North,360,0.0,7.0,78,0.00,,---,0.00,VWS V14.01,2013-07-05 05:31:00,
2013-07-05 01:36:00,68.1,61.0,29.91,North,360,0.0,7.0,78,0.00,,---,0.00,VWS V14.01,2013-07-05 05:36:00,
2013-07-05 01:41:00,68.1,61.0,29.91,North,360,0.0,7.0,78,0.00,,---,0.00,VWS V14.01,2013-07-05 05:41:00,
2013-07-05 01:46:00,68.2,61.1,29.91,North,360,0.0,7.0,78,0.00,,---,0.00,VWS V14.01,2013-07-05 05:46:00,
2013-07-05 01:51:00,68.3,61.2,29.91,North,360,0.0,7.0,78,0.00,,---,0.00,VWS V14.01,2013-07-05 05:51:00,
2013-07-05 01:56:00,68.3,61.2,29.91,North,360,0.0,7.0,78,0.00,,---,0.00,VWS V14.01,2013-07-05 05:56:00,
2013-07-05 02:01:00,68.3,61.2,29.92,North,360,1.0,1.0,78,0.00,,---,0.00,VWS V14.01,2013-07-05 06:01:00,
2013-07-05 02:06:00,68.3,61.2,29.91,North,360,0.0,1.0,78,0.00,,---,0.00,VWS V14.01,2013-07-05 06:06:00,
2013-07-05 02:11:00,68.2,61.1,29.92,North,360,0.0,2.0,78,0.00,,---,0.00,VWS V14.01,2013-07-05 06:11:00,
2013-07-05 02:16:00,68.1,61.0,29.92,North,360,0.0,3.0,78,0.00,,---,0.00,VWS V14.01,2013-07-05 06:16:00,
2013-07-05 02:21:00,68.0,60.9,29.91,North,360,0.0,3.0,78,0.00,,---,0.00,VWS V14.01,2013-07-05 06:21:00,
2013-07-05 02:26:00,68.0,60.9,29.92,North,360,0.0,3.0,78,0.00,,---,0.00,VWS V14.01,2013-07-05 06:26:00,
2013-07-05 02:31:00,68.0,60.9,29.91,North,360,0.0,3.0,78,0.00,,---,0.00,VWS V14.01,2013-07-05 06:31:00,
2013-07-05 02:36:00,67.9,60.8,29.91,North,360,0.0,3.0,78,0.00,,---,0.00,VWS V14.01,2013-07-05 06:36:00,
2013-07-05 02:41:00,67.9,60.8,29.91,North,360,0.0,3.0,78,0.00,,---,0.00,VWS V14.01,2013-07-05 06:41:00,
2013-07-05 02:46:00,67.9,60.8,29.91,North,360,0.0,3.0,78,0.00,,---,0.00,VWS V14.01,2013-07-05 06:46:00,
2013-07-05 02:51:00,68.0,60.9,29.91,North,360,0.0,4.0,78,0.00,,---,0.00,VWS V14.01,2013-07-05 06:51:00,
2013-07-05 02:56:00,68.0,60.9,29.92,North,360,0.0,4.0,78,0.00,,---,0.00,VWS V14.01,2013-07-05 06:56:00,
2013-07-05 03:01:00,68.0,60.9,29.91,North,360,0.0,4.0,78,0.00,,---,0.00,VWS V14.01,2013-07-05 07:01:00,
2013-07-05 03:06:00,68.0,60.5,29.92,North,360,0.0,4.0,77,0.00,,---,0.00,VWS V14.01,2013-07-05 07:06:00,
2013-07-05 03:11:00,68.0,60.9,29.92,North,360,0.0,4.0,78,0.00,,---,0.00,VWS V14.01,2013-07-05 07:11:00,
2013-07-05 03:16:00,68.0,60.9,29.92,North,360,0.0,4.0,78,0.00,,---,0.00,VWS V14.01,2013-07-05 07:16:00,
2013-07-05 03:21:00,68.0,60.9,29.92,North,360,0.0,4.0,78,0.00,,---,0.00,VWS V14.01,2013-07-05 07:21:00,
2013-07-05 03:26:00,68.0,60.9,29.92,North,360,0.0,4.0,78,0.00,,---,0.00,VWS V14.01,2013-07-05 07:26:00,
2013-07-05 03:31:00,67.9,60.8,29.92,North,360,0.0,4.0,78,0.00,,---,0.00,VWS V14.01,2013-07-05 07:31:00,
2013-07-05 03:36:00,67.9,60.4,29.92,North,360,2.0,4.0,77,0.00,,---,0.00,VWS V14.01,2013-07-05 07:36:00,
2013-07-05 03:41:00,67.9,60.4,29.92,North,360,0.0,4.0,77,0.00,,---,0.00,VWS V14.01,2013-07-05 07:41:00,
2013-07-05 03:46:00,68.0,60.5,29.92,North,360,0.0,4.0,77,0.00,,---,0.00,VWS V14.01,2013-07-05 07:46:00,
2013-07-05 03:51:00,68.1,60.6,29.92,North,360,0.0,4.0,77,0.00,,---,0.00,VWS V14.01,2013-07-05 07:51:00,
2013-07-05 03:56:00,68.2,60.7,29.92,North,360,0.0,4.0,77,0.00,,---,0.00,VWS V14.01,2013-07-05 07:56:00,
2013-07-05 04:01:00,68.2,60.3,29.92,North,360,0.0,0.0,76,0.00,,---,0.00,VWS V14.01,2013-07-05 08:01:00,
2013-07-05 04:06:00,68.2,60.3,29.92,North,360,2.0,2.0,76,0.00,,---,0.00,VWS V14.01,2013-07-05 08:06:00,
2013-07-05 04:11:00,68.2,60.3,29.91,North,360,0.0,2.0,76,0.00,,---,0.00,VWS V14.01,2013-07-05 08:11:00,
2013-07-05 04:16:00,68.2,60.3,29.92,North,360,3.0,3.0,76,0.00,,---,0.00,VWS V14.01,2013-07-05 08:16:00,
2013-07-05 04:21:00,68.2,60.3,29.92,North,360,1.0,3.0,76,0.00,,---,0.00,VWS V14.01,2013-07-05 08:21:00,
2013-07-05 04:26:00,68.2,60.3,29.92,North,360,0.0,3.0,76,0.00,,---,0.00,VWS V14.01,2013-07-05 08:26:00,
2013-07-05 04:31:00,68.2,60.3,29.92,North,360,0.0,3.0,76,0.00,,---,0.00,VWS V14.01,2013-07-05 08:31:00,
2013-07-05 04:36:00,68.2,60.3,29.92,North,360,0.0,4.0,76,0.00,,---,0.00,VWS V14.01,2013-07-05 08:36:00,
2013-07-05 04:41:00,68.2,60.3,29.92,North,360,0.0,4.0,76,0.00,,---,0.00,VWS V14.01,2013-07-05 08:41:00,
2013-07-05 04:46:00,68.1,60.3,29.92,North,360,0.0,4.0,76,0.00,,---,0.00,VWS V14.01,2013-07-05 08:46:00,
2013-07-05 04:51:00,68.1,60.3,29.92,North,360,0.0,4.0,76,0.00,,---,0.00,VWS V14.01,2013-07-05 08:51:00,
2013-07-05 04:56:00,68.1,60.3,29.91,North,360,0.0,4.0,76,0.00,,---,0.00,VWS V14.01,2013-07-05 08:56:00,
2013-07-05 05:01:00,68.1,59.9,29.91,North,360,0.0,4.0,75,0.00,,---,0.00,VWS V14.01,2013-07-05 09:01:00,
2013-07-05 05:06:00,68.1,59.9,29.91,North,360,0.0,4.0,75,0.00,,---,0.00,VWS V14.01,2013-07-05 09:06:00,
2013-07-05 05:11:00,68.1,59.9,29.91,North,360,0.0,4.0,75,0.00,,---,0.00,VWS V14.01,2013-07-05 09:11:00,
2013-07-05 05:17:00,68.0,59.8,29.91,North,360,0.0,4.0,75,0.00,,---,0.00,VWS V14.01,2013-07-05 09:17:00,
2013-07-05 05:22:00,68.0,59.8,29.91,North,360,0.0,4.0,75,0.00,,---,0.00,VWS V14.01,2013-07-05 09:22:00,
2013-07-05 05:27:00,67.9,59.7,29.91,North,360,0.0,4.0,75,0.00,,---,0.00,VWS V14.01,2013-07-05 09:27:00,
2013-07-05 05:32:00,67.8,59.6,29.91,North,360,0.0,4.0,75,0.00,,---,0.00,VWS V14.01,2013-07-05 09:32:00,
2013-07-05 05:37:00,67.6,59.8,29.91,North,360,0.0,4.0,76,0.00,,---,0.00,VWS V14.01,2013-07-05 09:37:00,
2013-07-05 05:42:00,67.5,59.7,29.92,North,360,0.0,4.0,76,0.00,,---,0.00,VWS V14.01,2013-07-05 09:42:00,
2013-07-05 05:47:00,67.4,59.6,29.92,North,360,0.0,4.0,76,0.00,,---,0.00,VWS V14.01,2013-07-05 09:47:00,
2013-07-05 05:52:00,67.3,59.5,29.92,North,360,0.0,4.0,76,0.00,,---,0.00,VWS V14.01,2013-07-05 09:52:00,
2013-07-05 05:57:00,67.3,59.5,29.91,North,360,0.0,4.0,76,0.00,,---,0.00,VWS V14.01,2013-07-05 09:57:00,
2013-07-05 06:02:00,67.3,59.5,29.91,North,360,0.0,1.0,76,0.00,,---,0.00,VWS V14.01,2013-07-05 10:02:00,
2013-07-05 06:07:00,67.2,59.4,29.92,North,360,0.0,1.0,76,0.00,,---,0.00,VWS V14.01,2013-07-05 10:07:00,
2013-07-05 06:12:00,67.2,59.4,29.92,North,360,1.0,2.0,76,0.00,,---,0.00,VWS V14.01,2013-07-05 10:12:00,
2013-07-05 06:17:00,67.2,59.4,29.92,North,360,1.0,2.0,76,0.00,,---,0.00,VWS V14.01,2013-07-05 10:17:00,
2013-07-05 06:22:00,67.3,59.1,29.92,North,360,0.0,2.0,75,0.00,,---,0.00,VWS V14.01,2013-07-05 10:22:00,
2013-07-05 06:27:00,67.4,59.2,29.92,North,360,0.0,2.0,75,0.00,,---,0.00,VWS V14.01,2013-07-05 10:27:00,
2013-07-05 06:33:00,67.6,59.4,29.92,North,360,0.0,2.0,75,0.00,,---,0.00,VWS V14.01,2013-07-05 10:33:00,
2013-07-05 06:37:00,67.7,59.1,29.92,North,360,0.0,2.0,74,0.00,,---,0.00,VWS V14.01,2013-07-05 10:37:00,
2013-07-05 06:42:00,67.8,59.2,29.92,North,360,0.0,2.0,74,0.00,,---,0.00,VWS V14.01,2013-07-05 10:42:00,
2013-07-05 06:47:00,67.9,59.3,29.92,North,360,0.0,2.0,74,0.00,,---,0.00,VWS V14.01,2013-07-05 10:47:00,
2013-07-05 06:53:00,67.9,59.3,29.92,North,360,0.0,2.0,74,0.00,,---,0.00,VWS V14.01,2013-07-05 10:53:00,
2013-07-05 06:58:00,67.8,59.2,29.92,North,360,0.0,2.0,74,0.00,,---,0.00,VWS V14.01,2013-07-05 10:58:00,
2013-07-05 07:03:00,67.8,58.8,29.92,North,360,0.0,2.0,73,0.00,,---,0.00,VWS V14.01,2013-07-05 11:03:00,
2013-07-05 07:08:00,67.9,59.3,29.92,North,360,0.0,2.0,74,0.00,,---,0.00,VWS V14.01,2013-07-05 11:08:00,
2013-07-05 07:13:00,67.9,59.3,29.92,North,360,0.0,4.0,74,0.00,,---,0.00,VWS V14.01,2013-07-05 11:13:00,
2013-07-05 07:18:00,67.9,59.3,29.92,North,360,0.0,4.0,74,0.00,,---,0.00,VWS V14.01,2013-07-05 11:18:00,
2013-07-05 07:23:00,68.0,59.4,29.92,North,360,0.0,4.0,74,0.00,,---,0.00,VWS V14.01,2013-07-05 11:23:00,
2013-07-05 07:28:00,68.2,59.6,29.92,North,360,0.0,4.0,74,0.00,,---,0.00,VWS V14.01,2013-07-05 11:28:00,
2013-07-05 07:33:00,68.3,59.3,29.92,North,360,0.0,4.0,73,0.00,,---,0.00,VWS V14.01,2013-07-05 11:33:00,
2013-07-05 07:38:00,68.5,59.5,29.92,North,360,0.0,4.0,73,0.00,,---,0.00,VWS V14.01,2013-07-05 11:38:00,
2013-07-05 07:43:00,68.6,59.6,29.92,North,360,0.0,4.0,73,0.00,,---,0.00,VWS V14.01,2013-07-05 11:43:00,
2013-07-05 07:49:00,68.9,59.9,29.92,North,360,0.0,4.0,73,0.00,,---,0.00,VWS V14.01,2013-07-05 11:49:00,
2013-07-05 07:54:00,69.1,59.7,29.93,North,360,2.0,4.0,72,0.00,,---,0.00,VWS V14.01,2013-07-05 11:54:00,
2013-07-05 07:59:00,69.4,60.4,29.93,North,360,0.0,4.0,73,0.00,,---,0.00,VWS V14.01,2013-07-05 11:59:00,
2013-07-05 08:04:00,69.7,60.3,29.93,North,360,0.0,1.0,72,0.00,,---,0.00,VWS V14.01,2013-07-05 12:04:00,
2013-07-05 08:09:00,70.1,60.7,29.92,North,360,0.0,2.0,72,0.00,,---,0.00,VWS V14.01,2013-07-05 12:09:00,
2013-07-05 08:14:00,70.4,60.6,29.93,North,360,0.0,2.0,71,0.00,,---,0.00,VWS V14.01,2013-07-05 12:14:00,
2013-07-05 08:19:00,70.7,60.8,29.92,North,360,0.0,2.0,71,0.00,,---,0.00,VWS V14.01,2013-07-05 12:19:00,
2013-07-05 08:24:00,71.1,60.8,29.93,North,360,0.0,2.0,70,0.00,,---,0.00,VWS V14.01,2013-07-05 12:24:00,
2013-07-05 08:29:00,71.5,60.8,29.93,North,360,0.0,3.0,69,0.00,,---,0.00,VWS V14.01,2013-07-05 12:29:00,
2013-07-05 08:34:00,72.0,60.9,29.93,North,360,0.0,3.0,68,0.00,,---,0.00,VWS V14.01,2013-07-05 12:34:00,
2013-07-05 08:39:00,72.4,60.8,29.93,North,360,1.0,3.0,67,0.00,,---,0.00,VWS V14.01,2013-07-05 12:39:00,
2013-07-05 08:44:00,72.8,60.8,29.93,North,360,1.0,3.0,66,0.00,,---,0.00,VWS V14.01,2013-07-05 12:44:00,
2013-07-05 08:49:00,73.1,61.1,29.93,North,360,2.0,4.0,66,0.00,,---,0.00,VWS V14.01,2013-07-05 12:49:00,
2013-07-05 08:54:00,73.3,60.8,29.93,North,360,0.0,4.0,65,0.00,,---,0.00,VWS V14.01,2013-07-05 12:54:00,
2013-07-05 09:00:00,73.6,61.1,29.93,North,360,0.0,4.0,65,0.00,,---,0.00,VWS V14.01,2013-07-05 13:00:00,
2013-07-05 09:05:00,73.9,61.8,29.93,North,360,0.0,4.0,66,0.00,,---,0.00,VWS V14.01,2013-07-05 13:05:00,
2013-07-05 09:10:00,74.2,61.7,29.93,North,360,0.0,4.0,65,0.00,,---,0.00,VWS V14.01,2013-07-05 13:10:00,
2013-07-05 09:15:00,74.6,61.6,29.93,North,360,0.0,4.0,64,0.00,,---,0.00,VWS V14.01,2013-07-05 13:15:00,
2013-07-05 09:20:00,75.1,63.0,29.93,North,360,0.0,4.0,66,0.00,,---,0.00,VWS V14.01,2013-07-05 13:20:00,
2013-07-05 09:25:00,75.4,63.3,29.93,North,360,1.0,4.0,66,0.00,,---,0.00,VWS V14.01,2013-07-05 13:25:00,
2013-07-05 09:30:00,75.7,62.7,29.93,North,360,3.0,4.0,64,0.00,,---,0.00,VWS V14.01,2013-07-05 13:30:00,
2013-07-05 09:35:00,76.0,63.0,29.93,North,360,0.0,4.0,64,0.00,,---,0.00,VWS V14.01,2013-07-05 13:35:00,
2013-07-05 09:40:00,76.2,62.7,29.93,North,360,0.0,4.0,63,0.00,,---,0.00,VWS V14.01,2013-07-05 13:40:00,
2013-07-05 09:45:00,76.4,62.4,29.93,North,360,0.0,4.0,62,0.00,,---,0.00,VWS V14.01,2013-07-05 13:45:00,
2013-07-05 09:51:00,76.8,62.8,29.93,North,360,0.0,4.0,62,0.00,,---,0.00,VWS V14.01,2013-07-05 13:51:00,
2013-07-05 09:56:00,77.1,63.1,29.93,North,360,0.0,4.0,62,0.00,,---,0.00,VWS V14.01,2013-07-05 13:56:00,
2013-07-05 10:01:00,77.5,63.9,29.93,North,360,0.0,1.0,63,0.00,,---,0.00,VWS V14.01,2013-07-05 14:01:00,
2013-07-05 10:06:00,77.9,63.4,29.93,North,360,0.0,4.0,61,0.00,,---,0.00,VWS V14.01,2013-07-05 14:06:00,
2013-07-05 10:11:00,78.3,64.7,29.93,North,360,0.0,4.0,63,0.00,,---,0.00,VWS V14.01,2013-07-05 14:11:00,
2013-07-05 10:16:00,78.7,62.7,29.93,North,360,2.0,4.0,58,0.00,,---,0.00,VWS V14.01,2013-07-05 14:16:00,
2013-07-05 10:21:00,79.0,63.9,29.93,North,360,0.0,4.0,60,0.00,,---,0.00,VWS V14.01,2013-07-05 14:21:00,
2013-07-05 10:26:00,79.4,64.8,29.93,North,360,0.0,4.0,61,0.00,,---,0.00,VWS V14.01,2013-07-05 14:26:00,
2013-07-05 10:31:00,79.7,64.6,29.93,North,360,0.0,4.0,60,0.00,,---,0.00,VWS V14.01,2013-07-05 14:31:00,
2013-07-05 10:36:00,80.0,65.4,29.93,North,360,0.0,4.0,61,0.00,,---,0.00,VWS V14.01,2013-07-05 14:36:00,
2013-07-05 10:41:00,80.2,64.6,29.93,North,360,0.0,4.0,59,0.00,,---,0.00,VWS V14.01,2013-07-05 14:41:00,
2013-07-05 10:46:00,80.4,64.3,29.92,East,89,1.0,6.0,58,0.00,,---,0.00,VWS V14.01,2013-07-05 14:46:00,
2013-07-05 10:51:00,80.7,65.1,29.92,East,89,0.0,6.0,59,0.00,,---,0.00,VWS V14.01,2013-07-05 14:51:00,
2013-07-05 10:56:00,81.0,64.8,29.93,East,89,0.0,6.0,58,0.00,,---,0.00,VWS V14.01,2013-07-05 14:56:00,
2013-07-05 11:01:00,81.2,64.5,29.92,East,89,0.0,6.0,57,0.00,,---,0.00,VWS V14.01,2013-07-05 15:01:00,
2013-07-05 11:06:00,81.5,64.3,29.92,East,89,2.0,6.0,56,0.00,,---,0.00,VWS V14.01,2013-07-05 15:06:00,
2013-07-05 11:11:00,81.9,63.6,29.92,East,89,0.0,6.0,54,0.00,,---,0.00,VWS V14.01,2013-07-05 15:11:00,
2013-07-05 11:16:00,82.1,64.9,29.92,East,92,0.0,6.0,56,0.00,,---,0.00,VWS V14.01,2013-07-05 15:16:00,
2013-07-05 11:21:00,82.3,64.0,29.92,East,91,0.0,6.0,54,0.00,,---,0.00,VWS V14.01,2013-07-05 15:21:00,
2013-07-05 11:26:00,82.5,64.7,29.92,East,91,0.0,6.0,55,0.00,,---,0.00,VWS V14.01,2013-07-05 15:26:00,
2013-07-05 11:31:00,82.8,64.5,29.92,East,91,0.0,6.0,54,0.00,,---,0.00,VWS V14.01,2013-07-05 15:31:00,
2013-07-05 11:36:00,82.8,64.5,29.92,East,91,1.0,6.0,54,0.00,,---,0.00,VWS V14.01,2013-07-05 15:36:00,
2013-07-05 11:41:00,83.0,65.2,29.92,East,91,0.0,6.0,55,0.00,,---,0.00,VWS V14.01,2013-07-05 15:41:00,
2013-07-05 11:46:00,83.2,64.8,29.92,East,82,0.0,6.0,54,0.00,,---,0.00,VWS V14.01,2013-07-05 15:46:00,
2013-07-05 11:50:00,83.3,63.9,29.92,East,82,0.0,6.0,52,0.00,,---,0.00,VWS V14.01,2013-07-05 15:50:00,
2013-07-05 11:55:00,83.5,63.5,29.92,East,82,0.0,6.0,51,0.00,,---,0.00,VWS V14.01,2013-07-05 15:55:00,
2013-07-05 12:00:00,83.5,63.5,29.92,East,85,0.0,1.0,51,0.00,,---,0.00,VWS V14.01,2013-07-05 16:00:00,
2013-07-05 12:05:00,83.5,65.1,29.92,North,360,0.0,7.0,54,0.00,,---,0.00,VWS V14.01,2013-07-05 16:05:00,
2013-07-05 12:10:00,83.6,65.2,29.92,North,360,1.0,7.0,54,0.00,,---,0.00,VWS V14.01,2013-07-05 16:10:00,
2013-07-05 12:15:00,83.8,63.2,29.92,North,360,0.0,7.0,50,0.00,,---,0.00,VWS V14.01,2013-07-05 16:15:00,
2013-07-05 12:20:00,83.9,63.8,29.92,North,360,0.0,7.0,51,0.00,,---,0.00,VWS V14.01,2013-07-05 16:20:00,
2013-07-05 12:25:00,83.9,63.3,29.92,North,360,1.0,7.0,50,0.00,,---,0.00,VWS V14.01,2013-07-05 16:25:00,
2013-07-05 12:30:00,83.9,63.8,29.92,North,360,0.0,7.0,51,0.00,,---,0.00,VWS V14.01,2013-07-05 16:30:00,
2013-07-05 12:35:00,84.0,63.9,29.92,North,360,0.0,7.0,51,0.00,,---,0.00,VWS V14.01,2013-07-05 16:35:00,
2013-07-05 12:40:00,84.1,62.9,29.92,North,360,0.0,7.0,49,0.00,,---,0.00,VWS V14.01,2013-07-05 16:40:00,
2013-07-05 12:45:00,83.9,61.5,29.91,North,360,0.0,7.0,47,0.00,,---,0.00,VWS V14.01,2013-07-05 16:45:00,
2013-07-05 12:50:00,83.7,62.5,29.91,North,360,0.0,7.0,49,0.00,,---,0.00,VWS V14.01,2013-07-05 16:50:00,
2013-07-05 12:55:00,83.8,63.8,29.91,North,360,0.0,7.0,51,0.00,,---,0.00,VWS V14.01,2013-07-05 16:55:00,
2013-07-05 13:00:00,84.1,62.9,29.91,North,360,0.0,7.0,49,0.00,,---,0.00,VWS V14.01,2013-07-05 17:00:00,
2013-07-05 13:05:00,83.9,62.7,29.91,North,360,0.0,7.0,49,0.00,,---,0.00,VWS V14.01,2013-07-05 17:05:00,
2013-07-05 13:10:00,83.7,62.5,29.91,North,360,1.0,7.0,49,0.00,,---,0.00,VWS V14.01,2013-07-05 17:10:00,
2013-07-05 13:15:00,83.9,63.3,29.90,North,360,1.0,7.0,50,0.00,,---,0.00,VWS V14.01,2013-07-05 17:15:00,
2013-07-05 13:20:00,84.1,64.0,29.90,North,360,0.0,7.0,51,0.00,,---,0.00,VWS V14.01,2013-07-05 17:20:00,
2013-07-05 13:25:00,83.7,63.7,29.90,North,360,0.0,7.0,51,0.00,,---,0.00,VWS V14.01,2013-07-05 17:25:00,
2013-07-05 13:30:00,83.3,63.3,29.91,East,101,2.0,7.0,51,0.00,,---,0.00,VWS V14.01,2013-07-05 17:30:00,
2013-07-05 13:35:00,83.0,64.1,29.90,East,101,0.0,7.0,53,0.00,,---,0.00,VWS V14.01,2013-07-05 17:35:00,
2013-07-05 13:40:00,83.2,62.1,29.90,East,101,0.0,7.0,49,0.00,,---,0.00,VWS V14.01,2013-07-05 17:40:00,
2013-07-05 13:45:00,83.6,62.4,29.90,East,101,0.0,7.0,49,0.00,,---,0.00,VWS V14.01,2013-07-05 17:45:00,
2013-07-05 13:50:00,84.2,62.4,29.90,East,101,0.0,7.0,48,0.00,,---,0.00,VWS V14.01,2013-07-05 17:50:00,
2013-07-05 13:55:00,84.6,62.2,29.90,East,97,2.0,7.0,47,0.00,,---,0.00,VWS V14.01,2013-07-05 17:55:00,
2013-07-05 14:00:00,84.7,62.3,29.90,East,95,0.0,3.0,47,0.00,,---,0.00,VWS V14.01,2013-07-05 18:00:00,
2013-07-05 14:05:00,84.7,62.9,29.90,East,92,0.0,4.0,48,0.00,,---,0.00,VWS V14.01,2013-07-05 18:05:00,
2013-07-05 14:10:00,84.9,63.6,29.90,East,92,0.0,4.0,49,0.00,,---,0.00,VWS V14.01,2013-07-05 18:10:00,
2013-07-05 14:15:00,85.0,60.7,29.90,East,89,0.0,6.0,44,0.00,,---,0.00,VWS V14.01,2013-07-05 18:15:00,
2013-07-05 14:20:00,85.2,63.3,29.90,East,93,0.0,6.0,48,0.00,,---,0.00,VWS V14.01,2013-07-05 18:20:00,
2013-07-05 14:25:00,85.4,61.7,29.89,East,93,1.0,6.0,45,0.00,,---,0.00,VWS V14.01,2013-07-05 18:25:00,
2013-07-05 14:30:00,85.4,61.7,29.89,East,86,0.0,6.0,45,0.00,,---,0.00,VWS V14.01,2013-07-05 18:30:00,
2013-07-05 14:35:00,85.6,63.7,29.89,East,86,0.0,6.0,48,0.00,,---,0.00,VWS V14.01,2013-07-05 18:35:00,
2013-07-05 14:40:00,85.6,61.2,29.89,North,360,0.0,6.0,44,0.00,,---,0.00,VWS V14.01,2013-07-05 18:40:00,
2013-07-05 14:45:00,85.6,61.8,29.89,North,360,2.0,6.0,45,0.00,,---,0.00,VWS V14.01,2013-07-05 18:45:00,
2013-07-05 14:50:00,85.8,62.0,29.89,North,360,2.0,6.0,45,0.00,,---,0.00,VWS V14.01,2013-07-05 18:50:00,
2013-07-05 14:55:00,86.1,62.3,29.89,ESE,121,2.0,9.0,45,0.00,,---,0.00,VWS V14.01,2013-07-05 18:55:00,
2013-07-05 15:00:00,86.2,61.1,29.89,ESE,111,0.0,9.0,43,0.00,,---,0.00,VWS V14.01,2013-07-05 19:00:00,
2013-07-05 15:05:00,86.1,61.0,29.89,ESE,111,4.0,9.0,43,0.00,,---,0.00,VWS V14.01,2013-07-05 19:05:00,
2013-07-05 15:10:00,86.1,63.5,29.88,ESE,112,2.0,9.0,47,0.00,,---,0.00,VWS V14.01,2013-07-05 19:10:00,
2013-07-05 15:15:00,86.4,62.6,29.88,East,99,2.0,9.0,45,0.00,,---,0.00,VWS V14.01,2013-07-05 19:15:00,
2013-07-05 15:20:00,86.4,61.3,29.88,East,94,1.0,9.0,43,0.00,,---,0.00,VWS V14.01,2013-07-05 19:20:00,
2013-07-05 15:25:00,86.5,62.0,29.88,North,360,2.0,9.0,44,0.00,,---,0.00,VWS V14.01,2013-07-05 19:25:00,
2013-07-05 15:30:00,86.5,62.7,29.88,North,360,3.0,9.0,45,0.00,,---,0.00,VWS V14.01,2013-07-05 19:30:00,
2013-07-05 15:35:00,86.1,62.9,29.88,North,360,0.0,9.0,46,0.00,,---,0.00,VWS V14.01,2013-07-05 19:35:00,
2013-07-05 15:40:00,85.9,64.0,29.88,North,360,0.0,9.0,48,0.00,,---,0.00,VWS V14.01,2013-07-05 19:40:00,
2013-07-05 15:45:00,86.0,64.6,29.87,North,360,2.0,9.0,49,0.00,,---,0.00,VWS V14.01,2013-07-05 19:45:00,
2013-07-05 15:50:00,86.3,64.3,29.87,North,360,0.0,9.0,48,0.00,,---,0.00,VWS V14.01,2013-07-05 19:50:00,
2013-07-05 15:55:00,86.5,65.1,29.87,North,360,0.0,9.0,49,0.00,,---,0.00,VWS V14.01,2013-07-05 19:55:00,
2013-07-05 16:00:00,86.1,64.7,29.87,East,101,0.0,0.0,49,0.00,,---,0.00,VWS V14.01,2013-07-05 20:00:00,
2013-07-05 16:05:00,85.3,64.6,29.87,East,101,0.0,3.0,50,0.00,,---,0.00,VWS V14.01,2013-07-05 20:05:00,
2013-07-05 16:10:00,84.7,64.0,29.87,East,94,0.0,4.0,50,0.00,,---,0.00,VWS V14.01,2013-07-05 20:10:00,
2013-07-05 16:15:00,84.8,65.2,29.87,East,98,1.0,4.0,52,0.00,,---,0.00,VWS V14.01,2013-07-05 20:15:00,
2013-07-05 16:20:00,85.2,64.5,29.86,East,98,0.0,4.0,50,0.00,,---,0.00,VWS V14.01,2013-07-05 20:20:00,
2013-07-05 16:25:00,85.5,64.2,29.86,North,360,2.0,4.0,49,0.00,,---,0.00,VWS V14.01,2013-07-05 20:25:00,
2013-07-05 16:30:00,85.7,64.9,29.87,North,360,0.0,4.0,50,0.00,,---,0.00,VWS V14.01,2013-07-05 20:30:00,
2013-07-05 16:35:00,85.8,63.3,29.86,North,360,1.0,4.0,47,0.00,,---,0.00,VWS V14.01,2013-07-05 20:35:00,
2013-07-05 16:40:00,85.8,63.9,29.86,North,360,1.0,4.0,48,0.00,,---,0.00,VWS V14.01,2013-07-05 20:40:00,
2013-07-05 16:45:00,85.6,63.1,29.86,North,360,0.0,4.0,47,0.00,,---,0.00,VWS V14.01,2013-07-05 20:45:00,
2013-07-05 16:50:00,85.5,63.0,29.86,North,360,0.0,5.0,47,0.00,,---,0.00,VWS V14.01,2013-07-05 20:50:00,
2013-07-05 16:55:00,85.4,62.9,29.86,North,360,1.0,5.0,47,0.00,,---,0.00,VWS V14.01,2013-07-05 20:55:00,
2013-07-05 17:00:00,85.5,63.0,29.86,North,360,1.0,5.0,47,0.00,,---,0.00,VWS V14.01,2013-07-05 21:00:00,
2013-07-05 17:05:00,85.5,63.0,29.86,SE,137,0.0,5.0,47,0.00,,---,0.00,VWS V14.01,2013-07-05 21:05:00,
2013-07-05 17:10:00,85.3,63.4,29.86,ESE,122,0.0,5.0,48,0.00,,---,0.00,VWS V14.01,2013-07-05 21:10:00,
2013-07-05 17:15:00,85.3,62.8,29.86,East,80,1.0,5.0,47,0.00,,---,0.00,VWS V14.01,2013-07-05 21:15:00,
2013-07-05 17:20:00,85.2,62.1,29.86,North,360,0.0,7.0,46,0.00,,---,0.00,VWS V14.01,2013-07-05 21:20:00,
2013-07-05 17:25:00,85.1,62.6,29.86,North,360,0.0,7.0,47,0.00,,---,0.00,VWS V14.01,2013-07-05 21:25:00,
2013-07-05 17:30:00,85.1,63.2,29.86,North,360,0.0,7.0,48,0.00,,---,0.00,VWS V14.01,2013-07-05 21:30:00,
2013-07-05 17:35:00,85.3,63.4,29.85,North,360,0.0,7.0,48,0.00,,---,0.00,VWS V14.01,2013-07-05 21:35:00,
2013-07-05 17:40:00,85.4,63.5,29.86,North,360,0.0,7.0,48,0.00,,---,0.00,VWS V14.01,2013-07-05 21:40:00,
2013-07-05 17:45:00,85.3,64.0,29.85,North,360,0.0,7.0,49,0.00,,---,0.00,VWS V14.01,2013-07-05 21:45:00,
2013-07-05 17:50:00,85.1,63.2,29.85,East,87,0.0,7.0,48,0.00,,---,0.00,VWS V14.01,2013-07-05 21:50:00,
2013-07-05 17:55:00,85.0,63.7,29.85,ESE,109,0.0,7.0,49,0.00,,---,0.00,VWS V14.01,2013-07-05 21:55:00,
2013-07-05 18:00:00,84.9,64.2,29.85,ESE,104,0.0,1.0,50,0.00,,---,0.00,VWS V14.01,2013-07-05 22:00:00,
2013-07-05 18:05:00,84.8,64.7,29.85,North,360,0.0,5.0,51,0.00,,---,0.00,VWS V14.01,2013-07-05 22:05:00,
2013-07-05 18:10:00,84.5,63.8,29.85,North,360,1.0,5.0,50,0.00,,---,0.00,VWS V14.01,2013-07-05 22:10:00,
2013-07-05 18:15:00,84.5,65.0,29.85,North,360,0.0,5.0,52,0.00,,---,0.00,VWS V14.01,2013-07-05 22:15:00,
2013-07-05 18:20:00,84.4,64.3,29.85,North,360,0.0,5.0,51,0.00,,---,0.00,VWS V14.01,2013-07-05 22:20:00,
2013-07-05 18:25:00,84.3,64.2,29.85,ESE,119,1.0,7.0,51,0.00,,---,0.00,VWS V14.01,2013-07-05 22:25:00,
2013-07-05 18:30:00,84.2,65.2,29.85,North,360,0.0,9.0,53,0.00,,---,0.00,VWS V14.01,2013-07-05 22:30:00,
2013-07-05 18:35:00,84.1,64.6,29.85,North,360,0.0,9.0,52,0.00,,---,0.00,VWS V14.01,2013-07-05 22:35:00,
2013-07-05 18:40:00,83.9,64.9,29.85,North,360,0.0,9.0,53,0.00,,---,0.00,VWS V14.01,2013-07-05 22:40:00,
2013-07-05 18:45:00,83.6,65.2,29.85,North,360,0.0,9.0,54,0.00,,---,0.00,VWS V14.01,2013-07-05 22:45:00,
2013-07-05 18:50:00,83.3,64.9,29.85,North,360,0.0,9.0,54,0.00,,---,0.00,VWS V14.01,2013-07-05 22:50:00,
2013-07-05 18:55:00,83.0,65.2,29.85,North,360,0.0,9.0,55,0.00,,---,0.00,VWS V14.01,2013-07-05 22:55:00,
2013-07-05 19:00:00,82.8,65.0,29.84,North,360,0.0,9.0,55,0.00,,---,0.00,VWS V14.01,2013-07-05 23:00:00,
2013-07-05 19:05:00,82.7,65.4,29.85,North,360,0.0,9.0,56,0.00,,---,0.00,VWS V14.01,2013-07-05 23:05:00,
2013-07-05 19:10:00,82.6,65.3,29.84,North,360,0.0,9.0,56,0.00,,---,0.00,VWS V14.01,2013-07-05 23:10:00,
2013-07-05 19:15:00,82.5,65.2,29.85,North,360,0.0,9.0,56,0.00,,---,0.00,VWS V14.01,2013-07-05 23:15:00,
2013-07-05 19:20:00,82.4,65.1,29.85,North,360,1.0,9.0,56,0.00,,---,0.00,VWS V14.01,2013-07-05 23:20:00,
2013-07-05 19:25:00,82.0,65.3,29.85,North,360,0.0,9.0,57,0.00,,---,0.00,VWS V14.01,2013-07-05 23:25:00,
2013-07-05 19:30:00,81.7,65.0,29.85,North,360,0.0,9.0,57,0.00,,---,0.00,VWS V14.01,2013-07-05 23:30:00,
2013-07-05 19:35:00,81.4,65.2,29.85,North,360,0.0,9.0,58,0.00,,---,0.00,VWS V14.01,2013-07-05 23:35:00,
2013-07-05 19:40:00,81.2,65.0,29.85,North,360,0.0,9.0,58,0.00,,---,0.00,VWS V14.01,2013-07-05 23:40:00,
2013-07-05 19:45:00,81.0,65.3,29.85,North,360,3.0,9.0,59,0.00,,---,0.00,VWS V14.01,2013-07-05 23:45:00,
2013-07-05 19:50:00,80.9,65.2,29.85,North,360,0.0,9.0,59,0.00,,---,0.00,VWS V14.01,2013-07-05 23:50:00,
2013-07-05 19:55:00,80.7,65.1,29.85,North,360,0.0,9.0,59,0.00,,---,0.00,VWS V14.01,2013-07-05 23:55:00,
2013-07-05 20:00:00,80.5,65.3,29.85,North,360,0.0,0.0,60,0.00,,---,0.00,VWS V14.01,2013-07-06 00:00:00,
2013-07-05 20:05:00,80.4,65.3,29.85,North,360,1.0,3.0,60,0.00,,---,0.00,VWS V14.01,2013-07-06 00:05:00,
2013-07-05 20:10:00,80.4,65.7,29.86,North,360,0.0,3.0,61,0.00,,---,0.00,VWS V14.01,2013-07-06 00:10:00,
2013-07-05 20:15:00,80.2,65.1,29.85,North,360,0.0,4.0,60,0.00,,---,0.00,VWS V14.01,2013-07-06 00:15:00,
2013-07-05 20:20:00,80.1,65.4,29.85,North,360,0.0,4.0,61,0.00,,---,0.00,VWS V14.01,2013-07-06 00:20:00,
2013-07-05 20:25:00,80.0,65.4,29.85,North,360,0.0,4.0,61,0.00,,---,0.00,VWS V14.01,2013-07-06 00:25:00,
2013-07-05 20:31:00,80.0,65.4,29.85,North,360,0.0,4.0,61,0.00,,---,0.00,VWS V14.01,2013-07-06 00:31:00,
2013-07-05 20:36:00,80.0,65.4,29.85,North,360,0.0,4.0,61,0.00,,---,0.00,VWS V14.01,2013-07-06 00:36:00,
2013-07-05 20:41:00,79.8,65.2,29.85,North,360,0.0,4.0,61,0.00,,---,0.00,VWS V14.01,2013-07-06 00:41:00,
2013-07-05 20:46:00,79.8,65.2,29.85,North,360,1.0,4.0,61,0.00,,---,0.00,VWS V14.01,2013-07-06 00:46:00,
2013-07-05 20:51:00,79.8,65.2,29.85,North,360,0.0,4.0,61,0.00,,---,0.00,VWS V14.01,2013-07-06 00:51:00,
2013-07-05 20:56:00,79.8,65.2,29.85,North,360,0.0,4.0,61,0.00,,---,0.00,VWS V14.01,2013-07-06 00:56:00,
2013-07-05 21:01:00,79.3,65.2,29.86,North,360,0.0,7.0,62,0.00,,---,0.00,VWS V14.01,2013-07-06 01:01:00,
2013-07-05 21:06:00,78.9,65.2,29.86,North,360,0.0,7.0,63,0.00,,---,0.00,VWS V14.01,2013-07-06 01:06:00,
2013-07-05 21:11:00,78.5,64.9,29.85,North,360,0.0,7.0,63,0.00,,---,0.00,VWS V14.01,2013-07-06 01:11:00,
2013-07-05 21:15:00,77.8,64.7,29.86,ESE,105,0.0,7.0,64,0.00,,---,0.00,VWS V14.01,2013-07-06 01:15:00,
2013-07-05 21:16:00,77.8,64.7,29.86,ESE,104,2.0,7.0,64,0.00,,---,0.00,VWS V14.01,2013-07-06 01:16:00,
2013-07-05 21:21:00,77.3,64.2,29.86,ESE,103,0.0,7.0,64,0.00,,---,0.00,VWS V14.01,2013-07-06 01:21:00,
2013-07-05 21:25:00,76.7,64.1,29.86,ESE,103,0.0,7.0,65,0.00,,---,0.00,VWS V14.01,2013-07-06 01:25:00,
2013-07-05 21:30:00,76.1,63.5,29.86,East,98,0.0,7.0,65,0.00,,---,0.00,VWS V14.01,2013-07-06 01:30:00,
2013-07-05 21:35:00,75.6,63.5,29.86,East,98,0.0,7.0,66,0.00,,---,0.00,VWS V14.01,2013-07-06 01:35:00,
2013-07-05 21:40:00,75.3,63.2,29.86,East,98,0.0,7.0,66,0.00,,---,0.00,VWS V14.01,2013-07-06 01:40:00,
2013-07-05 21:41:00,75.3,63.2,29.86,East,98,0.0,7.0,66,0.00,,---,0.00,VWS V14.01,2013-07-06 01:41:00,
2013-07-05 21:46:00,74.9,63.2,29.86,East,98,0.0,7.0,67,0.00,,---,0.00,VWS V14.01,2013-07-06 01:46:00,
2013-07-05 21:51:00,74.7,63.0,29.86,East,87,0.0,7.0,67,0.00,,---,0.00,VWS V14.01,2013-07-06 01:51:00,
2013-07-05 21:56:00,74.5,62.8,29.85,East,86,0.0,7.0,67,0.00,,---,0.00,VWS V14.01,2013-07-06 01:56:00,
2013-07-05 22:01:00,74.3,63.1,29.86,North,360,0.0,1.0,68,0.00,,---,0.00,VWS V14.01,2013-07-06 02:01:00,
2013-07-05 22:06:00,74.1,62.9,29.86,North,360,0.0,2.0,68,0.00,,---,0.00,VWS V14.01,2013-07-06 02:06:00,
2013-07-05 22:11:00,73.9,63.1,29.86,North,360,0.0,2.0,69,0.00,,---,0.00,VWS V14.01,2013-07-06 02:11:00,
2013-07-05 22:16:00,73.7,62.9,29.86,North,360,0.0,3.0,69,0.00,,---,0.00,VWS V14.01,2013-07-06 02:16:00,
2013-07-05 22:21:00,73.5,63.1,29.86,North,360,0.0,3.0,70,0.00,,---,0.00,VWS V14.01,2013-07-06 02:21:00,
2013-07-05 22:26:00,73.3,62.9,29.86,North,360,0.0,3.0,70,0.00,,---,0.00,VWS V14.01,2013-07-06 02:26:00,
2013-07-05 22:31:00,73.0,62.7,29.86,North,360,0.0,3.0,70,0.00,,---,0.00,VWS V14.01,2013-07-06 02:31:00,
2013-07-05 22:36:00,72.9,63.0,29.86,East,80,0.0,3.0,71,0.00,,---,0.00,VWS V14.01,2013-07-06 02:36:00,
2013-07-05 22:41:00,72.7,62.8,29.86,North,360,2.0,3.0,71,0.00,,---,0.00,VWS V14.01,2013-07-06 02:41:00,
2013-07-05 22:46:00,72.6,63.1,29.86,North,360,0.0,3.0,72,0.00,,---,0.00,VWS V14.01,2013-07-06 02:46:00,
2013-07-05 22:50:00,72.5,63.0,29.86,North,360,0.0,3.0,72,0.00,,---,0.00,VWS V14.01,2013-07-06 02:50:00,
2013-07-05 22:55:00,72.4,62.9,29.86,North,360,0.0,3.0,72,0.00,,---,0.00,VWS V14.01,2013-07-06 02:55:00,
2013-07-05 23:00:00,72.2,62.7,29.86,North,360,2.0,3.0,72,0.00,,---,0.00,VWS V14.01,2013-07-06 03:00:00,
2013-07-05 23:05:00,72.1,63.0,29.86,North,360,0.0,3.0,73,0.00,,---,0.00,VWS V14.01,2013-07-06 03:05:00,
2013-07-05 23:10:00,72.0,62.9,29.86,North,360,1.0,4.0,73,0.00,,---,0.00,VWS V14.01,2013-07-06 03:10:00,
2013-07-05 23:15:00,71.9,62.8,29.86,East,93,0.0,6.0,73,0.00,,---,0.00,VWS V14.01,2013-07-06 03:15:00,
2013-07-05 23:20:00,71.9,62.8,29.86,East,91,0.0,6.0,73,0.00,,---,0.00,VWS V14.01,2013-07-06 03:20:00,
2013-07-05 23:25:00,71.8,63.1,29.86,East,90,0.0,6.0,74,0.00,,---,0.00,VWS V14.01,2013-07-06 03:25:00,
2013-07-05 23:30:00,71.7,63.0,29.85,East,92,0.0,6.0,74,0.00,,---,0.00,VWS V14.01,2013-07-06 03:30:00,
2013-07-05 23:35:00,71.6,62.9,29.85,East,92,0.0,6.0,74,0.00,,---,0.00,VWS V14.01,2013-07-06 03:35:00,
2013-07-05 23:40:00,71.6,62.9,29.85,East,90,0.0,6.0,74,0.00,,---,0.00,VWS V14.01,2013-07-06 03:40:00,
2013-07-05 23:45:00,71.6,62.9,29.86,East,90,0.0,6.0,74,0.00,,---,0.00,VWS V14.01,2013-07-06 03:45:00,
2013-07-05 23:50:00,71.5,62.8,29.86,East,86,0.0,6.0,74,0.00,,---,0.00,VWS V14.01,2013-07-06 03:50:00,
2013-07-05 23:55:00,71.5,62.8,29.85,East,79,0.0,6.0,74,0.00,,---,0.00,VWS V14.01,2013-07-06 03:55:00,
2013-07-05 23:56:00,71.5,62.8,29.85,East,79,0.0,6.0,74,0.00,,---,0.00,VWS V14.01,2013-07-06 03:56:00,